User: anonymous   Login
Location: Ar Ranvel
(48.3000°N, 4.8833°W)
Time: 16:10:44
(UTC+00:00)
Language:

ISS - Orbit

View from above orbital plane
View from above orbital plane
View from above satellite
View from above satellite

Ground track
Ground track

The orbit data is extracted from the following two-line orbital elements,

1 25544U 98067A   21292.23354167  .00004999  00000-0  99720-4 0  9999
2 25544  51.6434  89.3620 0003942 122.8816 242.7649 15.48739060307826
Epoch (UTC): 19 October 2021 05:36:18
Eccentricity: 0.0003942
inclination: 51.6434°
perigee height: 418 km
apogee height: 423 km
right ascension of ascending node: 89.3620°
argument of perigee: 122.8816°
revolutions per day: 15.48739060
mean anomaly at epoch: 242.7649°
orbit number at epoch: 30782

The dashed part of the orbit path shows where the satellite is in the earth's shadow,  

DLR